Other Public Products
Issued by NWS Grand Forks, ND

Home | Current Version | Previous Version | Graphics & Text | Print | Product List | Glossary On
Versions: 1 2 3 4 5 6 7 8 9 10 11 12 13 14 15 16 17 18 19 20 21 22 23 24 25 26 27 28 29 30 31 32 33 34 35 36 37 38 39 40 41 42 43 44 45 46 47 48 49 50
000
FPUS83 KFGF 080831
OPUFGF
PRAIRIE TO PINES WEATHER ROUNDUP
NATIONAL WEATHER SERVICE EASTERN NORTH DAKOTA/GRAND FORKS ND
200 AM CST MON FEB 08 2016

 **SATELLITE DATA USED TO AUGMENT SKY COVER AT AUTOMATED STATIONS**
 *****  WEATHER ACROSS EASTERN NORTH DAKOTA  *****

CITY           SKY/WX    TMP DP  RH WIND       PRES   REMARKS
GRAND FORKS    LGT SNOW  15  10  80 N23G41    30.08R BLWGSNOWWCI  -3
GRAND FORKS AF LGT SNOW  14   9  79 N28G36    30.08R VSB 1   WCI  -6
GRAND CITY NWS   N/A     12 N/A N/A N24         N/A  WCI  -8
BUXTON           N/A     13  13  98 N25G47      N/A  WCI  -6
DEVILS LAKE    FLURRIES  18  13  80 N20       30.10S WCI   2
FARGO          SNOW      15  11  83 N36G47    30.05R VSB 1/4 WCI  -7
WAHPETON ARPT  CLOUDY    14  10  85 N32G39    30.02S WCI  -7
$$

 *****  WEATHER ACROSS CENTRAL AND WESTERN NORTH DAKOTA  *****

CITY           SKY/WX    TMP DP  RH WIND       PRES   REMARKS
JAMESTOWN      CLOUDY    20  13  74 N22G31    30.07R WCI   3
BISMARCK       CLEAR     29  17  61 NW21G32   30.20R WCI  16
MINOT          CLEAR     27  16  63 NW21G29   30.18S WCI  13
MINOT AFB      CLEAR     25  19  80 NW25G32   30.16F WCI   9
GARRISON         N/A     23  17  78 NW21      30.20R WCI   8
WILLISTON      CLEAR     25  17  72 NW18G28   30.29F WCI  11
DICKINSON      CLEAR     18  13  80 W10       30.25F WCI   6
HETTINGER      CLEAR     22  14  71 NW14      30.27S WCI   9
$$

 *****  OTHER OBSERVATIONS NORTHEAST NORTH DAKOTA  *****

CITY           SKY/WX    TMP DP  RH WIND       PRES   REMARKS
WALHALLA       LGT SNOW  14  14 100 N20G29    30.13R WCI  -3
LANGDON        LGT SNOW  16  10  79 N20G31    30.06R WCI  -1
CAVALIER       LGT SNOW  14   9  79 N24G35    30.11R WCI  -5
GRAFTON        CLOUDY    12   9  85 N33G40    30.11R FOG     WCI -10
CANDO          FLURRIES  19  14  79 N18       30.12F WCI   4
FORT TOTTEN      N/A     18  12  77 N9        29.95  WCI   7
ROLLA          FLURRIES  18  12  79 N30G37    30.10R WCI  -2
RUGBY          FAIR      19  14  79 NW18G25   30.13S WCI   4
 ***** THE ABOVE OBSERVATIONS ARE NON NWS ARE NOT QUALITY
        CONTROLLED AND MAY MIS-REPORT RAIN FOR SNOW...
$$

 *****  OTHER OBSERVATIONS SOUTHEAST NORTH DAKOTA *****

CITY           SKY/WX    TMP DP  RH WIND       PRES   REMARKS
COOPERSTOWN    NOT AVBL
VALLEY CITY    FLURRIES  18  12  79 N20G26    30.08S WCI   1
OAKES          CLOUDY    19  14  79 N31G41    30.06R WCI   0
GWINNER        CLOUDY    21  16  79 N20G30    30.07R WCI   6
SHEYENNE NWR     N/A     17  11  77 N21       29.95S WCI   0
BUFFALO          N/A     16  10  75 N26G41      N/A  WCI  -3
WYNDMERE         N/A     16  12  86 N20         N/A  WCI  -1
 ***** THE ABOVE OBSERVATIONS ARE NON NWS ARE NOT QUALITY
       CONTROLLED AND MAY MIS-REPORT RAIN FOR SNOW...
$$

  *****  WEATHER ACROSS NORTHERN MINNESOTA  *****

CITY           SKY/WX    TMP DP  RH WIND       PRES   REMARKS
FLAG ISLAND    LGT SNOW   3  -2  78 NW26      29.94R WCI -20
WARROAD        LGT SNOW   3   0  85 NW15G24   29.97R WCI -15
ROSEAU         LGT SNOW   7   0  72 NW22      29.99R WCI -14
HALLOCK        LGT SNOW  10   7  85 N23G30    30.07R WCI -10
THF RVR FALLS  NOT AVBL
HALSTAD          N/A     12  10  93 N26         N/A  WCI  -8
FOSSTON        LGT SNOW   3   1  92 NW21G32   29.97R VSB 1   WCI -18
BAUDETTE       LGT SNOW   4  -2  76 NW20G28   29.90R WCI -17
WASKISH        LGT SNOW   5   0  78 NW15      29.90S WCI -13
CROOKSTON      SNOW      10   9  92 N30G36    30.06R VSB 1/2 WCI -12
$$
  *****  WEATHER ACROSS CENTRAL AND WEST MINNESOTA  *****

CITY           SKY/WX    TMP DP  RH WIND       PRES   REMARKS
BEMIDJI        LGT SNOW   4  -1  80 NW16G25   29.89R WCI -15
PARK RAPIDS    CLOUDY     7   0  73 NW17G24   29.86S WCI -12
WADENA         LGT SNOW   7   1  78 NW21G26   29.89R WCI -13
DETROIT LAKES  LGT SNOW   9   5  85 N29G38    29.95R WCI -14
MOORHEAD       MIX PCPN  12  10  92 N20       30.04S WCI  -6
FERGUS FALLS   LGT SNOW  10   7  85 N31G43    30.00R WCI -12
ELBOW LAKE     LGT SNOW  10   6  82 NW24G36   29.96R WCI -10
MORRIS MN      SNOW      12   9  85 N29G41    29.95R VSB 1/4 WCI  -9
STAPLES        CLOUDY     7   0  72 NW17G24   29.87R WCI -12
WHEATON        FLURRIES  16  12  86 NW26G36   30.03R WCI  -3
$$
  *****  WEATHER ELSEWHERE ACROSS MINNESOTA  *****

CITY           SKY/WX    TMP DP  RH WIND       PRES   REMARKS
DULUTH         LGT SNOW  12   6  77 NW18G31   29.67S BLWGSNOWWCI  -6
INTRNTL FALLS  LGT SNOW   7   2  80 NW12      29.83R WCI  -8
ELY            LGT SNOW  12  10  92 N5        29.71R WCI   4
CLOQUET        LGT SNOW  10   7  85 NW17G25   29.71S WCI  -7
BRAINERD       CLOUDY     9   2  73 NW23G29   29.83R WCI -11
HIBBING        MIX PCPN   8   4  83 NW22G30   29.76R FOG     WCI -12
ALEXANDRIA     LGT SNOW   9   2  73 N18G33    29.89R WCI -10
SAINT CLOUD    CLOUDY    12   4  70 NW15G28   29.82R WCI  -4
MINNEAPOLIS    FLURRIES  15   8  73 NW20      29.79S WCI  -2
$$

  *****  WEATHER ACROSS SOUTH DAKOTA  *****

CITY           SKY/WX    TMP DP  RH WIND       PRES   REMARKS
SIOUX FALLS    CLOUDY    23  15  71 N30G43    29.98R WCI   5
BROOKINGS      LGT SNOW  19  14  79 N28G35    29.94R WCI   1
WATERTOWN      LGT SNOW  19  12  74 N32G43    29.98R WCI  -1
HURON          CLOUDY    27  18  69 N24G36    30.05S WCI  12
SISSETON         N/A     17  13  84 N22G29    30.01S WCI   0
ABERDEEN       CLOUDY    27  16  63 N26G41    30.08R WCI  12
MITCHELL       MIX PCPN  29  20  69 NW28G47   30.07R WCI  14
PIERRE         CLEAR     29  17  61 NW26G44   30.17S WCI  14
MOBRIDGE       MOCLDY    28  17  63 N24G36    30.14S WCI  14
RAPID CITY     CLEAR     30  10  43 N29G39    30.29S WCI  15
$$

  *****  SOME WEATHER IN NEARBY STATES *****

CITY           SKY/WX    TMP DP  RH WIND       PRES   REMARKS
GLASGOW MT     CLEAR     22  16  78 W9        30.38F WCI  12
GREAT FALLS MT PTCLDY    32  20  61 SW14      30.41F WCI  22
CHEYENNE WY    MOCLDY    20  11  68 N7        30.32F WCI  11
SCOTTSBLUFF NE MOCLDY    24  12  60 NW15      30.37F WCI  11
OMAHA NE       CLOUDY    31  22  69 NW31G46   29.97F WCI  16
DES MOINES IA  FLURRIES  25  16  68 NW23G31   29.87S WCI  10
DAVENPORT IA   CLOUDY    30  23  75 NW20G25   29.70S WCI  17
CHICAGO IL     PTCLDY    31  26  82 SW9       29.64F WCI  23
EAU CLAIRE WI  FLURRIES  19  11  70 NW13      29.68R WCI   6
LA CROSSE WI   LGT SNOW  22  16  78 NW17      29.69S WCI   8
$$

  *****  SOME NATIONAL WEATHER *****

CITY           SKY/WX    TMP DP  RH WIND       PRES   REMARKS
LA GUARDIA NY  CLOUDY    38  27  64 NE17      29.77F
RALEIGH NC     PTCLDY    34  22  61 CALM      29.82R
ATLANTA GA     PTCLDY    42  20  41 W7        29.93F
NEW ORLEANS LA CLEAR     46  34  62 SW6       30.13F
OKLAHOMA CITY  MOCLDY    42  16  34 NW20G25   30.27F
ALBUQUERQUE NM CLEAR     32  18  56 CALM      30.41S
SALT LAKE CITY PTCLDY    27  24  89 SE6       30.68R WCI  20
LOS ANGELES CA CLEAR     65  29  25 CALM      30.12F
BOISE ID       CLEAR     34  31  88 S7        30.67S
SEATTLE WA     CLEAR     42  38  85 N8        30.50S
$$

*** WEATHER ACROSS MANITOBA...SASKATCHEWAN AND ONTARIO ***
                ***ONTARIO***

CITY           SKY/WX    TMP DP  RH WIND       PRES   REMARKS
GERALDTON      FLURRIES  -2  -8  78 NE12      29.74S WCI -20
THUNDER BAY    FLURRIES   9   3  78 N8        29.71R WCI  -4
SIOUX LOOKOUT  FLURRIES   1  -2  85 N8        29.82R WCI -12
TORONTO        CLOUDY    37  34  87 E8        29.74F
BIG TROUT LK   CLEAR    -17 -22  76 E5        30.06S WCI -29
PICKLE LAKE    NOT AVBL
DRYDEN         FLURRIES   5   1  85 NE8       29.82R WCI  -8
KENORA         LGT SNOW   3   0  85 NW16G23   29.88R DRFTSNOWWCI -16
$$
                *** MANITOBA***

CITY           SKY/WX    TMP DP  RH WIND       PRES   REMARKS
BRANDON        PTCLDY    14  10  85 NW10      30.14S WCI   1
DAUPHIN        FLURRIES  16  12  86 N10       30.19S WCI   3
ISLAND LAKE    LGT SNOW  -2  -8  78 N8        30.07  WCI -17
PILOT MOUND      N/A     14  10  85 N15G21      N/A  WCI  -1
THE PAS        FLURRIES  10   5  79 NW9       30.26R WCI  -2
THOMPSON       FLURRIES   0  -4  85 NW5       30.17R WCI -10
WINNIPEG       LGT SNOW   9   3  78 N30G38    30.12R BLWGSNOWWCI -14
LYNN LAKE      CLOUDY    -2  -8  78 NW12G20   30.22R WCI -20
CHURCHILL      LGT SNOW  -8 -13  77 W6        30.18  WCI -21
GILLAM         LGT SNOW  -6 -11  77 NW6       30.15R WCI -18
$$
                ***SASKATCHEWAN***

CITY           SKY/WX    TMP DP  RH WIND       PRES   REMARKS
ESTEVAN        NOT AVBL
KINDERSLEY     MOCLDY    18  12  79 SW2       30.37R
LLOYDMINSTER   MOCLDY    23  16  74 W10       30.32F WCI  12
PRINCE ALBERT  CLEAR     12  10  92 W6        30.32R WCI   3
REGINA         CLEAR     18  16  93 NW10      30.31R WCI   6
YORKTON        CLEAR     16  10  79 NW12      30.22R WCC1F1C2F2C3F3C4F4C5F5C6F6C7F7C8F8C9F9CaFaCbFbCcFcCdFdCe!


USA.gov is the U.S. government's official web portal to all federal, state and local government web resources and services.